Hourly Data Report for October 01, 2017

All times are specified in Local Standard Time (LST). Add 1 hour to adjust for Daylight Saving Time where and when it is observed.

YOHIN
NORTHWEST TERRITORIES

61°14'31.000" N
123°44'30.000" W
204.00 m
2204300
71020
XYH

Download Data

Hourly Data (October 2017)
Hourly Data Report for October 1, 2017
Temp Definition
°C
Dew Point Temp Definition
°C
Rel Hum Definition
%
Wind Dir Definition
10's deg

Wind Spd Definition
km/h
Visibility Definition
km
Stn Press Definition
kPa
Hmdx Definition


Wind Chill Definition


Weather Definition


TIME
00:00 1.8 1.4 98 LegendMM LegendMM   99.15     LegendNANA
01:00 1.5 1.3 98 LegendMM LegendMM   99.22     LegendNANA
02:00 0.7 0.4 98 LegendMM LegendMM   99.28     LegendNANA
03:00 -0.5 -0.8 98 LegendMM LegendMM   99.38     LegendNANA
04:00 -0.6 -0.7 99 LegendMM LegendMM   99.47     LegendNANA
05:00 -0.7 -0.8 99 LegendMM LegendMM   99.59     LegendNANA
06:00 -1.4 -1.6 99 LegendMM LegendMM   99.70     LegendNANA
07:00 -1.2 -1.3 99 LegendMM LegendMM   99.82     LegendNANA
08:00 -1.8 -1.9 99 LegendMM LegendMM   99.90     LegendNANA
09:00 -1.1 -1.2 99 LegendMM LegendMM   100.00     LegendNANA
10:00 0.8 0.5 98 LegendMM LegendMM   100.09     LegendNANA
11:00 3.2 1.0 86 LegendMM LegendMM   100.13     LegendNANA
12:00 5.2 0.2 70 LegendMM LegendMM   100.17     LegendNANA
13:00 5.8 -2.0 57 LegendMM LegendMM   100.18     LegendNANA
14:00 7.7 -4.2 43 LegendMM LegendMM   100.17     LegendNANA
15:00 9.8 -4.7 35 LegendMM LegendMM   100.17     LegendNANA
16:00 9.2 -3.5 41 LegendMM LegendMM   100.15     LegendNANA
17:00 9.5 -2.5 43 LegendMM LegendMM   100.15     LegendNANA
18:00 7.9 -0.4 56 LegendMM LegendMM   100.20     LegendNANA
19:00 3.0 0.4 83 LegendMM LegendMM   100.27     LegendNANA
20:00 0.3 -0.9 92 LegendMM LegendMM   100.35     LegendNANA
21:00 -1.9 -2.5 96 LegendMM LegendMM   100.42     LegendNANA
22:00 -2.3 -2.7 97 LegendMM LegendMM   100.45     LegendNANA
23:00 -3.3 -3.7 97 LegendMM LegendMM   100.46     LegendNANA

Notes on Data Quality.

Legend

  • E = Estimated
  • M = Missing
  • NA = Not Available
  • ‡ = Partner data that is not subject to review by the National Climate Archives
Date modified: